P/2007 R3 (Gibbs)

T 2007 July 6.40184 TT                                  Nakano

q   2.4999733            (2000.0)            P               Q

n   0.11123482     Peri.  312.12482     +0.95131713     +0.30641670

a   4.2819560      Node    30.07630     -0.25959171     +0.85470114

e   0.4161609      Incl.    3.80242     -0.16615617     +0.41904029

P   8.86 (+/- 0.17 day)

From 106 observations 2007 Sept. 14-Nov. 5.

Residuals in seconds of arc 

2007/                     070915 A17  0.1-  1.1+    071004 673  0.5+  0.3-  

070914 G96  0.2-  0.2-    070915 A17  1.1-  0.1-    071004 673  0.4+  0.2-  

070914 G96  0.2+  0.1-    070915 A13  0.2-  0.5-    071006 213  0.6-  0.8+  

070914 G96  0.4+  0.5-    070915 J95  0.1+  0.1+    071006 213  0.5-  0.7+  

070914 G96  0.2+  0.5-    070916 157  0.7+  0.6-    071006 213  0.6-  0.8+  

070914 G96  0.4+  0.0     070916 J95  0.3+  0.7-    071006 J47  0.2+  0.4+  

070914 G96  0.5+  0.1+    070916 473  0.2-  0.2+    071006 J46  0.7+  0.3+  

070914 G96  0.1-  0.2-    070916 473  0.3-  0.0     071007 246  0.4+  0.7+  

070914 G96  0.5+  0.3+    070916 473  0.4-  0.1+    071007 246  0.7+  0.1+  

070914 G96  0.0   0.0     070916 H55  0.5+  0.3+    071007 246  1.2+  0.1+  

070914 G96  0.4+  0.2+    070916 H55 (2.0+  0.3-)   071007 246  1.9+  0.1-  

070914 G96  0.9+  0.1-    070916 H55  0.4-  0.3+    071009 673  0.3-  0.7+  

070914 G96  0.6+  0.1+    070916 H36  1.6-  0.9+    071009 673  0.4-  0.5+  

070915 H55  0.2-  0.6+    070916 H36  0.5-  0.3+    071009 673  0.4-  0.4+  

070915 H55  0.3+  0.1-    070916 H36  1.1-  1.5-    071009 673  0.5-  0.1+  

070915 H55  0.4+  0.4-    070917 H55  0.3+  0.3+    071009 585  1.3+  1.0+  

070915 G96  0.3+  0.1-    070917 355  0.8-  0.7-    071015 246  1.9-  0.2-  

070915 G96  0.2+  0.2-    070917 355 (2.2-  1.1-)   071015 246  1.5-  0.2-  

070915 G96  0.4+  0.0     070917 355 (2.3-  0.4+)   071015 246  1.6-  0.4-  

070915 G96  0.2+  0.2-    070918 J47  0.2-  1.3+    071015 246  1.6-  0.8+  

070915 H36  1.2-  0.6-    070919 704 (2.0-  2.9+)   071015 246  0.2+  0.5+  

070915 H36  0.7-  0.5-    070919 704  0.1-  1.0-    071015 A82  0.4+  0.4-  

070915 H36  0.9+  0.1-    070919 704  0.0   0.8+    071015 A82  0.4+  0.4-  

070915 691  0.2+  0.0     070919 704  0.7-  0.6+    071015 A82  0.2+  0.3-  

070915 711  0.3+  0.8+    070919 691  1.7-  0.9-    071015 A82  0.3-  0.2-  

070915 G96  0.4+  0.2+    070919 691  1.0-  0.2-    071017 699  0.3+  0.5+  

070915 G96  0.4+  0.1+    070919 691  0.0   0.4-    071017 699  0.0   0.2+  

070915 G96  0.4+  0.1+    070919 204  0.2+  0.1-    071017 699  1.2+  0.8-  

070915 G96  0.4+  0.0     070920 204  0.0   0.1+    071017 699  0.6-  0.9-  

070915 711  0.5+  0.2+    070920 349  0.5-  0.2+    071019 G96  0.0   0.5-  

070915 691  0.6-  0.0     070920 349  0.6-  0.3-    071019 G96  0.3+  0.4-  

070915 711  0.1+  0.3-    070920 349  0.4-  0.1+    071019 G96  0.2-  0.5-  

070915 691  0.8-  1.3-    070920 215  1.7+  0.1-    071019 G96  0.1+  0.4-  

070915 A17  1.1+  0.3+    070921 850  0.7+  0.1-    071105 G96  0.8+  0.1-  

070915 473  0.4-  0.2+    070921 850  0.3+  0.3-    071105 G96  0.4+  0.4-  

070915 A13  0.0   0.6-    071004 673  0.5+  0.2+    071105 G96  0.0   0.1-  

070915 235  0.2-  1.7+    071004 673  0.1+  0.1-    071105 G96  0.2-  0.0   



NAKANO

         **** Don't distribute anyone except personal use only ****

                (C) Copyright 2007 OAA/ComputingSection

write mail from CFAD0::NAKANO on 2007-11-30 09:05:11(JST).

 





    P/2007 R3 (Gibbs)

T 2007 July 6.23816 TT                                  Nakano

q   2.5061352            (2000.0)            P               Q

n   0.11103150     Peri.  312.25629     +0.95157562     +0.30560432

a   4.2871819      Node    29.99414     -0.25877385     +0.85479522

e   0.4154353      Incl.    3.82103     -0.16595159     +0.41944146

P   8.88 (+/- 1.79 days)

From 83 observations 2007 Sept. 14-Oct. 9.



NAKANO

         **** Don't distribute anyone except personal use only ****

                (C) Copyright 2007 OAA/ComputingSection

write mail from CFAD0::NAKANO on 2007-10-18 07:23:28(JST).

 



◎P/2007 R3の軌道と予報位置



 秦野の浅見敦夫氏から9月17日の観測が報告されました.氏のCCD全光度は

18.3等でした.



    P/2007 R3 (Gibbs)

T 2007 June 18.15991 TT                                 Nakano

q   2.2811876            (2000.0)            P               Q

n   0.10716009     Peri.  299.73910     +0.88536666     +0.46385537

a   4.3898264      Node    32.65341     -0.40418470     +0.80103038

e   0.4803467      Incl.    3.29899     -0.22969678     +0.37840260

P   9.20 (+/-115.88 days)

From 53 observations 2007 Sept. 14-17.

 

Date/        TT  R.A.(2000) Decl.     Delta   r     Daily motion  Mag.  Moon Age

              h    h  m       。  ,                      ,  / PA 。  m1      。

2007 Sept.15 16  00 41.16  +01 23.3   1.409  2.386     8.9 / 256  18.5  151  .15

          16 16  00 40.58  +01 21.1   1.408  2.389     9.1 / 256  18.5  139  .23

          17 16  00 40.00  +01 18.9   1.408  2.391     9.3 / 256  18.5  127  .31

          18 16  00 39.40  +01 16.6   1.407  2.393     9.4 / 256  18.5  115  .40

          19 16  00 38.79  +01 14.3   1.407  2.396     9.6 / 256  18.5  103  .50

          20 16  00 38.17  +01 11.9   1.407  2.398     9.7 / 256  18.5   91  .60

          21 16  00 37.54  +01 09.6   1.408  2.400     9.8 / 256  18.5   78  .69

          22 16  00 36.91  +01 07.2   1.408  2.403     9.9 / 256  18.6   65  .79

          23 16  00 36.26  +01 04.7   1.409  2.405    10.0 / 256  18.6   51  .87

          24 16  00 35.62  +01 02.3   1.410  2.408    10.1 / 256  18.6   37  .94

          25 16  00 34.96  +00 59.9   1.411  2.410    10.1 / 256  18.6   23  .98

          26 16  00 34.31  +00 57.5   1.413  2.413    10.2 / 256  18.6    9 1.00

          27 16  00 33.65  +00 55.1   1.415  2.415    10.2 / 256  18.6   10  .99

          28 16  00 32.99  +00 52.7   1.417  2.418    10.2 / 257  18.6   24  .95

          29 16  00 32.32  +00 50.3   1.419  2.420    10.2 / 257  18.6   39  .88

          30 16  00 31.66  +00 48.0   1.422  2.423    10.2 / 257  18.6   54  .79

     Oct.  1 16  00 31.00  +00 45.7   1.425  2.425    10.1 / 257  18.6   68  .69

           2 16  00 30.34  +00 43.4   1.428  2.428    10.1 / 257  18.6   82  .58

           3 16  00 29.69  +00 41.1   1.431  2.431    10.0 / 257  18.6   96  .47

           4 16  00 29.04  +00 38.9   1.435  2.433     9.9 / 258  18.6  110  .37

           5 16  00 28.39  +00 36.8   1.439  2.436     9.8 / 258  18.7  123  .27

           6 16  00 27.75  +00 34.7   1.443  2.439     9.7 / 258  18.7  135  .18

           7 16  00 27.12  +00 32.7   1.447  2.441     9.6 / 258  18.7  148  .11

           8 16  00 26.49  +00 30.7   1.452  2.444     9.4 / 258  18.7  160  .06

           9 16  00 25.88  +00 28.8   1.457  2.447     9.2 / 259  18.7  172  .02

          10 16  00 25.28  +00 27.0   1.462  2.449     9.1 / 259  18.7  173  .00

          11 16  00 24.68  +00 25.3   1.467  2.452     8.9 / 259  18.7  162  .00

          12 16  00 24.10  +00 23.6   1.473  2.455     8.7 / 260  18.7  150  .02

          13 16  00 23.53  +00 22.1   1.479  2.458     8.4 / 260  18.8  138  .05

          14 16  00 22.98  +00 20.7   1.485  2.461     8.2 / 261  18.8  127  .11

          15 16  00 22.44  +00 19.3   1.491  2.463     8.0 / 261  18.8  115  .17

NAKANO

         **** Don't distribute anyone except personal use only ****

                (C) Copyright 2007 OAA/ComputingSection

write mail from CFAD0::NAKANO on 2007-09-19 02:50:48(JST).

 

戻ります。